Printer-friendly version

IAU Minor Planet Center

Minor Planet Center

MPEC 2006-V41 : 2006 VD2

The following Minor Planet Electronic Circular may be linked-to from your own Web pages, but must not otherwise be redistributed electronically.


Read MPEC 2006-V40 Read MPEC 2006-V42


M.P.E.C. 2006-V41                                Issued 2006 Nov. 11, 19:28 UT

     The Minor Planet Electronic Circulars contain information on unusual
         minor planets and routine data on comets.  They are published
   on behalf of Commission 20 of the International Astronomical Union by the
          Minor Planet Center, Smithsonian Astrophysical Observatory,
                          Cambridge, MA 02138, U.S.A.

             Prepared using the Tamkin Foundation Computer Network

                              MPC@CFA.HARVARD.EDU
          URL http://cfa-www.harvard.edu/iau/mpc.html  ISSN 1523-6714

                                   2006 VD2

Observations:
     K06V02D* C2006 11 09.51815 02 13 21.21 -40 05 19.2          18.2 V EV041E12
     K06V02D  C2006 11 09.53142 02 13 24.09 -40 04 12.4          18.1 V EV041E12
     K06V02D  C2006 11 09.54488 02 13 26.94 -40 03 04.2          18.2 V EV041E12
     K06V02D  C2006 11 09.55818 02 13 29.74 -40 01 57.0          18.2 V EV041E12
     K06V02D  C2006 11 09.61965 02 13 42.85 -39 56 43.3          18.3 V EV041E12
     K06V02D  C2006 11 09.62017 02 13 43.03 -39 56 40.4          18.3 V EV041E12
     K06V02D  C2006 11 09.62071 02 13 43.10 -39 56 37.9          18.2 V EV041E12
     K06V02D  C2006 11 09.62124 02 13 43.24 -39 56 35.0          18.2 V EV041E12
     K06V02D  C2006 11 09.62177 02 13 43.32 -39 56 31.9          18.1 V EV041E12
     K06V02D  C2006 11 09.62500 02 13 44.14 -39 56 16.4          18.0 V EV041E12
     K06V02D  C2006 11 09.64286 02 13 47.89 -39 54 44.2          18.2 V EV041E12
     K06V02D  C2006 11 09.66067 02 13 51.74 -39 53 12.3          18.4 V EV041E12
     K06V02D  C2006 11 09.69779 02 13 59.73 -39 50 02.7          17.8 V EV041E12
     K06V02D  C2006 11 09.69934 02 14 00.09 -39 49 52.3          18.1 V EV041E12
     K06V02D  C2006 11 10.04977 02 15 23.26 -39 20 31.1          18.    EV041808
     K06V02D  C2006 11 10.05278 02 15 24.28 -39 20 11.7          18.    EV041808
     K06V02D  C2006 11 10.05764 02 15 25.29 -39 19 47.9          18.    EV041808
     K06V02D  C2006 11 10.06319 02 15 26.24 -39 19 22.2          19.    EV041808
     K06V02D  C2006 11 10.24057 02 16 04.69 -39 05 00.3          18.3 R EV041854
     K06V02D  C2006 11 10.24152 02 16 04.96 -39 04 56.3          18.5 R EV041854
     K06V02D  C2006 11 10.24248 02 16 04.96 -39 04 52.5          18.5 R EV041854
     K06V02D  C2006 11 10.24631 02 16 05.64 -39 04 32.5          18.3 R EV041854
     K06V02D 5C2006 11 10.28171 02 16 13.37 -39 01 33.9          18.5 R EV041673
     K06V02D 5C2006 11 10.28843 02 16 14.76 -39 00 59.4                 EV041673
     K06V02D 5C2006 11 10.29225 02 16 15.51 -39 00 41.6                 EV041673
     K06V02D 5C2006 11 10.29815 02 16 16.69 -39 00 12.4                 EV041673
     K06V02D  C2006 11 10.38240 02 16 35.28 -38 52 45.0          18.3 V EV041F84
     K06V02D  C2006 11 10.41099 02 16 41.04 -38 50 20.9                 EV041F84
     K06V02D  C2006 11 10.51156 02 17 04.22 -38 41 46.6          18.3 V EV041E12
     K06V02D  C2006 11 10.51211 02 17 04.34 -38 41 43.8          18.3 V EV041E12
     K06V02D  C2006 11 10.72699 02 17 47.72 -38 23 33.3          17.9 V EV041E12
     K06V02D  C2006 11 10.72764 02 17 47.90 -38 23 30.4          17.6 V EV041E12
     K06V02D  C2006 11 10.72829 02 17 47.94 -38 23 27.3          18.2 V EV041E12
     K06V02D  C2006 11 10.72894 02 17 48.08 -38 23 24.5          17.3 V EV041E12
     K06V02D  C2006 11 11.24842 02 19 39.95 -37 40 48.5          18.2 R EV041H36
     K06V02D  C2006 11 11.25185 02 19 40.68 -37 40 32.1          18.0 R EV041H36
     K06V02D  C2006 11 11.25528 02 19 41.37 -37 40 15.4          17.4 R EV041H36
     K06V02D  C2006 11 11.25869 02 19 42.00 -37 39 59.5          17.5 R EV041H36
     K06V02D  C2006 11 11.30243 02 19 52.90 -37 35 54.3          18.0 V EV041F84
     K06V02D  C2006 11 11.31836 02 19 55.95 -37 34 35.5                 EV041F84
     K06V02D  C2006 11 11.47282 02 20 27.92 -37 21 36.6          18.3 V EV041E12
     K06V02D  C2006 11 11.47336 02 20 27.99 -37 21 34.2          18.3 V EV041E12
     K06V02D  C2006 11 11.47388 02 20 28.14 -37 21 31.3          18.1 V EV041E12
     K06V02D  C2006 11 11.47441 02 20 28.21 -37 21 29.0          18.2 V EV041E12

Observer details:
673 Table Mountain Observatory, Wrightwood.  Observer J. Young.  0.61-m f/16
    Cassegrain + CCD.
808 El Leoncito.  Observer H. S. Lepez.  0.5-m f/7.5 double astrograph + CCD.
854 Sabino Canyon Observatory, Tucson.  Observer J. E. McGaha.  0.36-m f/10.0
    Schmidt-Cassegrain + CCD.
E12 Siding Spring Survey.  Observers G. J. Garradd, G. j. garradd.  Measurers
    E. C. Beshore, E. J. Christensen, G. J. Garradd, A. R. Gibbs, A. D. Grauer,
    R. E. Hill, R. A. Kowalski, S. M. Larson, R. H. McNaught.  0.5-m Uppsala
    Schmidt + CCD.
F84 Hibiscus Observatory, Punaauia.  Observer N. Teamo.  Measurer J. C. Pelle.
    0.35-m f/3.88 Schmidt-Cassegrain + 1392x1040 CCD.
H36 Sandlot Observatory, Scranton.  Observer G. Hug.  0.30-m
    Schmidt-Cassegrain + CCD.

Orbital elements:
2006 VD2                                                 Earth MOID = 0.1148 AU
Epoch 2006 Sept. 22.0 TT = JDT 2454000.5                MPC
M 356.79013              (2000.0)            P               Q
n   0.24084182     Peri.  241.84611     +0.98935557     -0.05740597
a   2.5584766      Node   121.16020     +0.09777945     +0.94279605
e   0.5961835      Incl.    8.98996     -0.10777167     +0.32839027
P   4.09           H   19.3           G   0.15           U   8
Residuals in seconds of arc
061109 E12  0.5-  0.1+    061110 808 (2.5+  1.2+)   061110 E12  0.2+  0.5+
061109 E12  0.0   0.1-    061110 808 (2.4+  0.8+)   061110 E12  0.8+  0.1+
061109 E12  0.2-  0.0     061110 808  0.0   1.1-    061110 E12  0.4-  0.2-
061109 E12  0.5-  0.2-    061110 854  0.3+  0.7+    061110 E12  0.3-  0.7-
061109 E12  0.5-  0.0     061110 854  1.2+  0.1-    061111 H36  0.8-  0.8+
061109 E12  0.3+  0.3+    061110 854  1.1-  1.1-    061111 H36  0.0   0.0
061109 E12  0.2-  0.0     061110 854 (2.3-  0.3-)   061111 H36  0.4+  0.5-
061109 E12  0.1+  0.2+    061110 673  0.0   0.6+    061111 H36  0.0   1.7-
061109 E12  0.3-  0.6+    061110 673  0.3+  1.3+    061111 F84  0.2-  0.1+
061109 E12  1.2+  0.5-    061110 673  0.0   0.2-    061111 F84  0.2+  0.3+
061109 E12  0.3+  0.1+    061110 673  0.3-  0.7-    061111 E12  0.0   0.3+
061109 E12  0.4+  0.4+    061110 F84  0.1-  0.2+    061111 E12  0.4-  0.1+
061109 E12  0.5-  1.5-    061110 F84  0.5+  0.1-    061111 E12  0.2+  0.4+
061109 E12  0.2-  0.9+    061110 E12  0.1-  0.1+    061111 E12  0.1-  0.1+
061110 808 (2.0-  3.3-)   061110 E12  0.1+  0.2+

Ephemeris:
2006 VD2                 a,e,i = 2.56, 0.60, 9                   q = 1.0332
Date    TT    R. A. (2000) Decl.     Delta      r     Elong.  Phase     V
2006 11 11    02 18.80   -38 01.0    0.233    1.136   123.7    46.5    18.2
2006 11 21    02 45.83   -25 02.3    0.276    1.193   132.9    37.3    18.4
2006 12 01    03 03.30   -14 21.1    0.336    1.258   138.5    31.3    18.8
2006 12 11    03 16.86   -05 57.6    0.414    1.329   139.9    28.5    19.3
2006 12 21    03 29.09   +00 33.1    0.509    1.403   137.8    28.1    19.8
2006 12 31    03 41.36   +05 37.7    0.620    1.481   133.7    28.7    20.4
2007 01 10    03 54.21   +09 37.2    0.745    1.560   128.4    29.6    20.9
2007 01 20    04 07.83   +12 47.9    0.884    1.640   122.6    30.4    21.4
2007 01 30    04 22.32   +15 21.1    1.036    1.719   116.6    30.8    21.9

Timothy B. Spahr             (C) Copyright 2006 MPC           M.P.E.C. 2006-V41

Read MPEC 2006-V40 Read MPEC 2006-V42


Our Web policy. Index to the CBAT/MPC/ICQ pages.


Valid HTML 4.01!